Regional Weather Roundup
Issued by NWS Sioux Falls, SD

Home | Current Version | Previous Version | Graphics & Text | Print | Product List | Glossary On
Versions: 1 2 3 4 5 6 7 8 9 10 11 12 13 14 15 16 17 18 19 20 21 22 23 24 25 26 27 28 29 30 31 32 33 34 35 36 37 38 39 40 41 42 43 44 45 46 47 48 49 50
000
ASUS43 KFSD 110410
RWRFSD

WEATHER ROUNDUP FOR SE SOUTH DAKOTA/SW MINNESOTA/NW IOWA
NATIONAL WEATHER SERVICE SIOUX FALLS SD
1100 PM CDT THU JUL 10 2014

NOTE: "FAIR" INDICATES FEW OR NO CLOUDS BELOW 12,000 FEET WITH NO
SIGNIFICANT WEATHER AND OR OBSTRUCTIONS TO VISIBILITY.


SDZ038>040-050-052>070-110500-
SOUTHEAST SOUTH DAKOTA

CITY           SKY/WX    TMP DP  RH WIND       PRES   REMARKS
CHAMBERLAIN    MOCLDY    78  68  73 S12G17    29.85R
HURON          PTCLDY    79  67  66 S14G23    29.84R
MADISON        FAIR      73  68  83 S16G25    29.91R
MITCHELL       MOCLDY    79  68  69 S15       29.86R
SIOUX FALLS    MOCLDY    77  65  66 S22       29.92R
WINNER         MOCLDY    81  68  64 S21G29    29.88R
YANKTON        PTCLDY    73  66  78 SE9       29.92R
$$

MNZ071-072-080-081-089-090-097-098-110500-
SOUTHWEST MINNESOTA

CITY           SKY/WX    TMP DP  RH WIND       PRES   REMARKS
FAIRMONT       CLOUDY    73  55  53 S15       30.00F
JACKSON        CLOUDY    73  59  60 S16       29.99F
LUVERNE        CLOUDY    73  64  73 S13       29.95S
MARSHALL       CLOUDY    75  64  69 S22       29.91R
MONTEVIDEO     CLOUDY    75  64  69 S13       29.91R
PIPESTONE      CLOUDY    73  64  73 S20G28    29.93R
REDWOOD FALLS  CLOUDY    76  63  64 S15       29.93S
TRACY          CLOUDY    75  65  70 S13G21    29.94S
WINDOM         CLOUDY    73  63  68 S14G20    29.98R
WORTHINGTON    CLOUDY    72  64  78 S13G18    29.98S
$$

IAZ001>003-012>014-020>022-031-032-NEZ013-014-SDZ071-110500-
NORTHWEST IOWA

CITY           SKY/WX    TMP DP  RH WIND       PRES   REMARKS
CHEROKEE       PTCLDY    71  65  83 S9        29.99S
DENISON        CLEAR     72  63  73 S15       30.00S
ESTHERVILLE    CLOUDY    72  60  66 S15       30.01R
LE MARS        PTCLDY    73  66  78 S13G21    29.97S
ORANGE CITY    PTCLDY    73  64  73 S13       29.97F
SHELDON        MOCLDY    73  64  73 S17G24    29.96S
SIOUX CITY     CLEAR     76  66  71 S14G22    29.97R
SPENCER        CLOUDY    72  61  68 S15       29.99S
STORM LAKE     MOCLDY    70  63  78 S15       30.02S
$$

ABBREVIATIONS USED IN REMARKS
   TC - TEMPERATURE IN CELSIUS
  WCI - WIND CHILL INDEX
   HX - HEAT INDEX
  VSB - VISIBILITY



USA.gov is the U.S. government's official web portal to all federal, state and local government web resources and services.